Lexington Weather

Lexington, Massachusetts, USA

23°F
1/21/2021 9:31am 
  • Lexington Conditions: Clear
  • Temperature: 23.4°F / -4.8°CWarmer 1.7°F than last hour.
  • Dew Point: 12.2°FIncreased 0.4°Fsince last hour.
  • Relative Humidity: 62%Decreased 3.0% since last hour.
  • Wind: Wind from WSW WSW Calm, 10-min avg: 1 mph, gust: 6 mph
  • Barometer: 29.77 inFalling 0.03  inHg/hr Falling Slowly
  • Visibility: 10 miles
  • Snow Today: Trace
  •   

Regional Weather Roundup
for Boston / Norton, MA

        
000
ASUS41 KBOX 170704
RWRBOX

REGIONAL WEATHER ROUNDUP
NATIONAL WEATHER SERVICE BOSTON/NORTON MA
200 AM EST SUN JAN 17 2021

NOTE:  "FAIR" INDICATES FEW OR NO CLOUDS BELOW 12,000 FEET WITH NO 
SIGNIFICANT WEATHER AND/OR OBSTRUCTIONS TO VISIBILITY.

MAZALL-170800-
EASTERN MASSACHUSETTS
  
CITY           SKY/WX    TMP DP  RH WIND       PRES   REMARKS
BOSTON         PTCLDY    36  26  67 SW15G28   29.27R WCI  27          
BEVERLY        CLOUDY    38  29  70 W17G24    29.23R WCI  28          
LAWRENCE       NOT AVBL                                               
BEDFORD        PTCLDY    36  27  69 W12G20    29.26R WCI  28          
BLUE HILL        N/A     33  25  72 W21G29    29.25R WCI  21          
NORWOOD        PTCLDY    37  25  61 W17G23    29.30R WCI  27          
MARSHFIELD     PTCLDY    37  28  70 W10G22    29.29R WCI  30          
PLYMOUTH       CLEAR     35  27  72 SW15G23   29.31R WCI  25          
TAUNTON        CLEAR     36  27  69 SW9       29.34R WCI  29          
NEW BEDFORD    CLEAR     36  28  73 SW9G22    29.35R WCI  29          
$$

MAZALL-170800-
CAPE COD AND THE ISLANDS
  
CITY           SKY/WX    TMP DP  RH WIND       PRES   REMARKS
FALMOUTH       NOT AVBL                                               
HYANNIS        CLEAR     37  29  72 SW18G26   29.32R WCI  27          
CHATHAM        CLEAR     37  29  72 W12G22    29.34R WCI  29          
NANTUCKET      PTCLDY    39  33  79 W17G23    29.37R WCI  30          
MARTHAS VNYRD  CLEAR     39  28  64 W12G26    29.37R WCI  32          
$$
 
MAZALL-170800-
CENTRAL AND WESTERN MASSACHUSETTS
  
CITY           SKY/WX    TMP DP  RH WIND       PRES   REMARKS
WORCESTER      PTCLDY    33  23  66 W20G26    29.28R WCI  21          
FITCHBURG      PTCLDY    36  27  69 SW15G25   29.27R WCI  27          
ORANGE         CLOUDY    35  26  69 SW13G20   29.29R WCI  26          
SPRINGFIELD    PTCLDY    35  22  59 W12G23    29.34R WCI  27          
WESTFIELD      PTCLDY    35  24  64 W9G18     29.35R WCI  28          
NORTH ADAMS    LGT SNOW  34  25  69 W20G29    29.31R WCI  23          
PITTSFIELD     CLOUDY    31  23  72 W15       29.30R WCI  20          
$$
 
RIZALL-170800-
RHODE ISLAND
  
CITY           SKY/WX    TMP DP  RH WIND       PRES   REMARKS
PROVIDENCE     CLEAR     35  27  72 W14       29.36R WCI  26          
NEWPORT        CLEAR     35  28  75 W9        29.37R WCI  28          
BLOCK ISLAND   PTCLDY    37  27  67 W22G32    29.41R WCI  26          
SMITHFIELD     CLEAR     33  28  81 W12G20    29.33R WCI  24          
WESTERLY       CLEAR     34  26  72 W9G18     29.40R WCI  27          
$$
 
CTZALL-170800-
CONNECTICUT
  
CITY           SKY/WX    TMP DP  RH WIND       PRES   REMARKS
BRADLEY INTL   PTCLDY    34  24  67 W13       29.37R WCI  25          
HARTFORD       CLEAR     36  25  64 W10       29.39R WCI  28          
BRIDGEPORT     PTCLDY    38  27  64 W12G21    29.46R WCI  30          
DANBURY        PTCLDY    34  24  67 W7        29.44R WCI  28          
GROTON         NOT AVBL                                               
NEW HAVEN      PTCLDY    38  28  67 SW9G18    29.44R WCI  31          
CHESTER        FAIR      34  27  75 VRB6G13   29.40R WCI  29          
MERIDEN        PTCLDY    36  24  62 VRB5      29.42R                  
WILLIMANTIC    CLEAR     33  26  75 VRB5      29.38R WCI  29          
OXFORD         PTCLDY    33  26  75 W14G23    29.40R WCI  23          
$$

MEZ002-015-021-024-NHZ003-005-008-011-012-014-VTZ005-008-170800-
NORTHERN NEW ENGLAND
  
CITY           SKY/WX    TMP DP  RH WIND       PRES   REMARKS
PORTLAND ME    CLOUDY    36  33  89 SW12      29.11R WCI  28          
BANGOR ME      LGT RAIN  39  37  92 S12       29.06S FOG     WCI  32  
CONCORD NH     CLOUDY    36  28  73 W9        29.19R WCI  29          
MANCHESTER NH  MOCLDY    36  28  73 VRB6G17   29.21R WCI  31          
NASHUA NH      MOCLDY    36  30  79 W10G16    29.24R WCI  28          
PORTSMOUTH NH  PTCLDY    36  29  76 SW9       29.17R WCI  29          
JAFFREY NH     CLOUDY    33  26  75 SW8       29.23R WCI  26          
KEENE NH       CLOUDY    35  27  72 SW3       29.26R                  
BURLINGTON VT  LGT SNOW  34  31  88 S6        29.19R FOG     WCI  29  
MT. WASHINGTON SNOW      14  14 100 W45         N/A  VSB 1/16WCI -10  
$$

NYZ052-076-170800-
EASTERN NEW YORK
  
CITY           SKY/WX    TMP DP  RH WIND       PRES   REMARKS
ALBANY         CLOUDY    33  23  66 SW10G26   29.35R WCI  25          
NEW YORK CITY  CLEAR     39  24  55 W21G29    29.50R WCI  29          
$$
 
ANZALL-170800-
MARINE OBSERVATIONS
  
STATION/POSITION TIME  TEMP    WIND        PRES    VSBY  WAVE
                       AIR SEA DIR/SP/G                  HT/PER
                 (UTC) (F)     (DEG/KT/KT) (MB)    (MI)  (FT/S)
BOSTON BUOY      0650   39 43  240/ 23/ 31  991.2R         7/10
BUZZARDS BAY     0600          260/ 31/ 34  994.3R
NANTUCKET SOUND  0650      41  260/ 21/ 27   N/A           3/ 4
MASS BAY-STELLWA 0604   40     250/ 21/ 25  987.8R  1 7/8  9/11
ISLE OF SHOALS   0600   38     250/ 23/ 25  987.2R
S OF BLOCK IS    0626      47                N/A          10/11
$$

......................KEY.........................
  SKY/WX - SKY CONDITION/PRESENT WEATHER
  TMP    - TEMPERATURE IN FAHRENHEIT
  DWPT   - DEWPOINT IN FAHRENHEIT
  RH     - RELATIVE HUMIDITY IN PERCENT
  WIND   - DIRECTION AND SPEED IN MPH
  PRES   - MEAN SEA LEVEL PRESSURE IN INCHES OF HG
  WCI    - WIND CHILL INDEX
  VSB    - VISIBILITY IN MILES
  HX     - HEAT INDEX
  TC     - TEMPERATURE IN CELSIUS
  VRB    - VARIABLE WIND DIRECTION
  N/A    - NOT AVAILABLE
  
      

Other recent Regional Weather Roundups

Thu Jan 21, 9:04am

Thu Jan 21, 7:04am

Thu Jan 21, 6:04am

Thu Jan 21, 5:04am

Thu Jan 21, 4:04am

Thu Jan 21, 3:04am

Thu Jan 21, 2:04am

Thu Jan 21, 1:04am

Thu Jan 21, 12:04am

Wed Jan 20, 11:04pm

Wed Jan 20, 10:05pm

Wed Jan 20, 9:04pm

Wed Jan 20, 8:04pm

Wed Jan 20, 7:04pm

Wed Jan 20, 6:05pm

Wed Jan 20, 5:05pm

Wed Jan 20, 1:04pm

Wed Jan 20, 12:04pm

Wed Jan 20, 11:04am

Wed Jan 20, 10:04am

Wed Jan 20, 9:05am

Wed Jan 20, 8:04am

Wed Jan 20, 7:04am

Wed Jan 20, 6:04am

Wed Jan 20, 5:04am

Wed Jan 20, 4:04am

Wed Jan 20, 3:05am

Wed Jan 20, 2:04am

Wed Jan 20, 1:04am

Wed Jan 20, 12:04am

Tue Jan 19, 11:04pm

Tue Jan 19, 10:04pm

Tue Jan 19, 9:04pm

Tue Jan 19, 8:04pm

Tue Jan 19, 7:04pm

Tue Jan 19, 6:05pm

Tue Jan 19, 5:04pm

Tue Jan 19, 4:05pm

Tue Jan 19, 3:04pm

Tue Jan 19, 2:04pm

Tue Jan 19, 1:04pm

Tue Jan 19, 12:05pm

Tue Jan 19, 11:04am

Tue Jan 19, 10:05am

Tue Jan 19, 9:04am

Tue Jan 19, 8:04am

Tue Jan 19, 7:04am

Tue Jan 19, 6:04am

Tue Jan 19, 5:04am

Tue Jan 19, 4:04am

Tue Jan 19, 3:04am

Tue Jan 19, 2:04am

Tue Jan 19, 1:04am

Tue Jan 19, 12:04am

Mon Jan 18, 11:04pm

Mon Jan 18, 10:04pm

Mon Jan 18, 9:04pm

Mon Jan 18, 8:05pm

Mon Jan 18, 7:04pm

Mon Jan 18, 6:05pm

Mon Jan 18, 5:04pm

Mon Jan 18, 4:04pm

Mon Jan 18, 3:04pm

Mon Jan 18, 2:04pm

Mon Jan 18, 1:04pm

Mon Jan 18, 12:04pm

Mon Jan 18, 11:04am

Mon Jan 18, 10:04am

Mon Jan 18, 9:04am

Mon Jan 18, 8:04am

Mon Jan 18, 7:04am

Mon Jan 18, 6:04am

Mon Jan 18, 5:04am

Mon Jan 18, 4:04am

Mon Jan 18, 3:04am

Mon Jan 18, 2:04am

Mon Jan 18, 1:04am

Mon Jan 18, 12:04am

Sun Jan 17, 11:04pm

Sun Jan 17, 10:04pm

Sun Jan 17, 9:04pm

Sun Jan 17, 8:04pm

Sun Jan 17, 7:04pm

Sun Jan 17, 6:04pm

Sun Jan 17, 5:04pm

Sun Jan 17, 4:05pm

Sun Jan 17, 3:04pm

Sun Jan 17, 2:04pm

Sun Jan 17, 1:04pm

Sun Jan 17, 12:04pm

Sun Jan 17, 11:04am

Sun Jan 17, 10:04am

Sun Jan 17, 9:04am

Sun Jan 17, 8:04am

Sun Jan 17, 7:04am

Sun Jan 17, 6:04am

Sun Jan 17, 5:04am

Sun Jan 17, 4:04am

Sun Jan 17, 3:04am

Sun Jan 17, 1:04am

Sun Jan 17, 12:04am

Sat Jan 16, 11:05pm

Sat Jan 16, 10:04pm

Sat Jan 16, 9:04pm

Sat Jan 16, 8:05pm

Sat Jan 16, 7:04pm

Sat Jan 16, 6:04pm

Sat Jan 16, 5:05pm

Sat Jan 16, 4:05pm

Sat Jan 16, 3:05pm

Sat Jan 16, 2:04pm

Sat Jan 16, 1:04pm

Sat Jan 16, 12:04pm

Sat Jan 16, 11:04am

Sat Jan 16, 10:05am

Sat Jan 16, 9:04am

Sat Jan 16, 8:04am

Sat Jan 16, 7:04am

Sat Jan 16, 6:04am

Sat Jan 16, 5:04am

Sat Jan 16, 4:04am

Sat Jan 16, 3:05am

Sat Jan 16, 2:04am

Sat Jan 16, 1:04am

Sat Jan 16, 12:05am

Fri Jan 15, 11:05pm

Fri Jan 15, 10:04pm

Fri Jan 15, 9:04pm

Fri Jan 15, 8:04pm

Fri Jan 15, 7:05pm

Fri Jan 15, 6:05pm

Fri Jan 15, 5:05pm

Fri Jan 15, 4:05pm

Fri Jan 15, 3:04pm

Fri Jan 15, 2:05pm

Fri Jan 15, 1:04pm

Fri Jan 15, 12:05pm

Fri Jan 15, 11:04am

Fri Jan 15, 10:04am

Fri Jan 15, 9:05am

Fri Jan 15, 8:04am

Fri Jan 15, 7:04am

Fri Jan 15, 6:04am

Fri Jan 15, 5:05am

Fri Jan 15, 4:04am

Fri Jan 15, 3:04am

Fri Jan 15, 2:04am

Fri Jan 15, 1:04am

Fri Jan 15, 12:05am

Thu Jan 14, 11:04pm

Thu Jan 14, 10:04pm

Thu Jan 14, 9:04pm

Thu Jan 14, 8:05pm

Thu Jan 14, 7:04pm

Thu Jan 14, 6:04pm

Thu Jan 14, 5:04pm

Thu Jan 14, 4:05pm

Thu Jan 14, 3:04pm

Thu Jan 14, 2:04pm

Thu Jan 14, 1:04pm

Thu Jan 14, 12:05pm

Thu Jan 14, 11:05am

Thu Jan 14, 10:04am

Thu Jan 14, 9:04am

Thu Jan 14, 8:04am

Thu Jan 14, 7:04am

Thu Jan 14, 6:04am

Thu Jan 14, 5:04am

Thu Jan 14, 4:04am

Thu Jan 14, 3:04am

Thu Jan 14, 2:04am

Thu Jan 14, 1:04am

Thu Jan 14, 12:04am

Wed Jan 13, 11:04pm

Wed Jan 13, 10:04pm

Wed Jan 13, 9:04pm

Wed Jan 13, 8:05pm

Wed Jan 13, 7:04pm

Wed Jan 13, 6:04pm

Wed Jan 13, 5:04pm

Wed Jan 13, 4:04pm

Wed Jan 13, 3:05pm

Wed Jan 13, 2:04pm

Wed Jan 13, 1:04pm

Wed Jan 13, 12:04pm

Wed Jan 13, 11:04am

Wed Jan 13, 10:04am

Wed Jan 13, 9:05am

Wed Jan 13, 8:04am

Wed Jan 13, 7:04am

Wed Jan 13, 6:04am

Wed Jan 13, 5:04am

Wed Jan 13, 4:04am

Wed Jan 13, 3:04am

Wed Jan 13, 2:04am

Wed Jan 13, 1:04am

Wed Jan 13, 12:05am

Tue Jan 12, 11:04pm

Tue Jan 12, 10:04pm

Tue Jan 12, 9:04pm

Tue Jan 12, 8:05pm

Tue Jan 12, 7:04pm

Meta data:

ID: 26237707-e34f-41e2-a3d1-83f062f48c68
Link: https://api.weather.gov/products/26237707-e34f-41e2-a3d1-83f062f48c68